Melfa, VA

7:33 PM EST on February 24, 2017 (GMT -0500)
Accomack County

Weather History for KMFV - January, 2014

Change the Weather History Date:

Saturday, January 25, 2014

  Actual Average (KWAL) Record (KWAL)
Temperature  
Mean Temperature 30 °F -  
Max Temperature 39 °F 41 °F 61 °F (2002)
Min Temperature 21 °F 26 °F 12 °F (2013)
Degree Days  
Heating Degree Days 35    
Moisture  
Dew Point 9 °F    
Average Humidity 39    
Maximum Humidity 46    
Minimum Humidity 28    
Precipitation  
Precipitation 0.00 in - - ()
Sea Level Pressure  
Sea Level Pressure 29.81 in    
Wind  
Wind Speed 12 mph (SW)    
Max Wind Speed 23 mph    
Max Gust Speed 31 mph    
Visibility 10 miles    
Events      
Averages and records for this station are not official NWS values.
T = Trace of Precipitation, MM = Missing Value Source: NWS Daily Summary

Daily Weather History Graph

Daily Weather History Graph

Search for Another Location

Airport or City:

Trip Planner

Search our weather history database for the weather conditions in past years. The results will help you decide how hot, cold, wet, or windy it might be!

Date:

Astronomy

Jan. 25, 2014 Rise Set
Actual Time 7:12 AM EST 5:19 PM EST
Civil Twilight 6:44 AM EST 5:47 PM EST
Nautical Twilight 6:12 AM EST 6:18 PM EST
Astronomical Twilight 5:41 AM EST 6:49 PM EST
Moon 1:42 AM EST 12:17 PM EST
Length of Visible Light 11h 03m
Length of Day
10h 07m
Waning Crescent, 34% of the Moon is Illuminated
Jan 25
Waning Crescent
Jan 30
New
Feb 6
First Quarter
Feb 14
Full
Feb 22
Last Quarter

Hourly Weather History & Observations

Time (EST) Temp. Windchill Dew Point Humidity Pressure Visibility Wind Dir Wind Speed Gust Speed Precip Events Conditions
12:15 AM 23.0 °F 13.9 °F 1.4 °F 39% 30.22 in 10.0 mi SSW 8.1 mph - N/A   Clear
12:35 AM 21.2 °F 11.7 °F 1.4 °F 42% 30.21 in 10.0 mi South 8.1 mph - N/A   Clear
12:55 AM 23.0 °F 13.1 °F 3.2 °F 43% 30.20 in 10.0 mi SSW 9.2 mph - N/A   Clear
1:15 AM 23.0 °F 13.9 °F 3.2 °F 43% 30.19 in 10.0 mi South 8.1 mph - N/A   Clear
1:35 AM 23.0 °F 13.9 °F 3.2 °F 43% 30.18 in 10.0 mi South 8.1 mph - N/A   Clear
1:55 AM 23.0 °F 13.1 °F 3.2 °F 43% 30.18 in 10.0 mi SSW 9.2 mph - N/A   Clear
2:15 AM 23.0 °F 14.7 °F 5.0 °F 46% 30.17 in 10.0 mi SSW 6.9 mph - N/A   Clear
2:36 AM 23.0 °F 13.9 °F 5.0 °F 46% 30.15 in 10.0 mi SSW 8.1 mph - N/A   Clear
2:55 AM 24.8 °F 13.4 °F 6.8 °F 46% 30.14 in 10.0 mi SSW 12.7 mph - N/A   Clear
3:16 AM 24.8 °F 13.4 °F 5.0 °F 43% 30.11 in 10.0 mi SSW 12.7 mph 17.3 mph N/A   Clear
3:35 AM 24.8 °F 14.6 °F 5.0 °F 43% 30.10 in 10.0 mi SSW 10.4 mph - N/A   Clear
3:55 AM 24.8 °F 14.6 °F 5.0 °F 43% 30.09 in 10.0 mi SSW 10.4 mph 16.1 mph N/A   Clear
4:15 AM 24.8 °F 14.0 °F 6.8 °F 46% 30.08 in 10.0 mi SSW 11.5 mph 19.6 mph N/A   Clear
4:35 AM 24.8 °F 14.6 °F 6.8 °F 46% 30.06 in 10.0 mi SSW 10.4 mph 19.6 mph N/A   Clear
4:55 AM 24.8 °F 15.3 °F 6.8 °F 46% 30.04 in 10.0 mi South 9.2 mph 16.1 mph N/A   Clear
5:15 AM 24.8 °F 12.9 °F 6.8 °F 46% 30.02 in 10.0 mi SSW 13.8 mph 20.7 mph N/A   Clear
5:36 AM 24.8 °F 14.6 °F 6.8 °F 46% 30.01 in 10.0 mi SSW 10.4 mph 19.6 mph N/A   Clear
5:55 AM 24.8 °F 13.4 °F 6.8 °F 46% 30.00 in 10.0 mi SSW 12.7 mph 18.4 mph N/A   Clear
6:16 AM 24.8 °F 14.6 °F 6.8 °F 46% 30.00 in 10.0 mi SSW 10.4 mph 17.3 mph N/A   Clear
6:35 AM 26.6 °F 16.2 °F 6.8 °F 43% 29.99 in 10.0 mi SSW 11.5 mph 18.4 mph N/A   Clear
6:55 AM 26.6 °F 16.2 °F 6.8 °F 43% 29.98 in 10.0 mi SSW 11.5 mph 19.6 mph N/A   Clear
7:15 AM 26.6 °F 16.8 °F 6.8 °F 43% 29.97 in 10.0 mi SSW 10.4 mph 17.3 mph N/A   Clear
7:35 AM 26.6 °F 15.2 °F 6.8 °F 43% 29.97 in 10.0 mi SSW 13.8 mph 18.4 mph N/A   Clear
7:55 AM 28.4 °F 16.6 °F 6.8 °F 40% 29.95 in 10.0 mi SSW 16.1 mph 23.0 mph N/A   Clear
8:16 AM 28.4 °F 17.5 °F 6.8 °F 40% 29.94 in 10.0 mi SSW 13.8 mph 19.6 mph N/A   Clear
8:35 AM 28.4 °F 17.0 °F 6.8 °F 40% 29.93 in 10.0 mi SSW 15.0 mph 23.0 mph N/A   Clear
8:55 AM 30.2 °F 20.2 °F 6.8 °F 37% 29.92 in 10.0 mi SSW 12.7 mph 23.0 mph N/A   Clear
9:15 AM 30.2 °F 18.9 °F 6.8 °F 37% 29.91 in 10.0 mi SSW 16.1 mph 23.0 mph N/A   Clear
9:35 AM 30.2 °F 19.3 °F 6.8 °F 37% 29.90 in 10.0 mi SW 15.0 mph 23.0 mph N/A   Clear
9:55 AM 30.2 °F 18.5 °F 6.8 °F 37% 29.88 in 10.0 mi SW 17.3 mph 21.9 mph N/A   Clear
10:15 AM 32.0 °F 20.8 °F 6.8 °F 35% 29.86 in 10.0 mi SW 17.3 mph 23.0 mph N/A   Clear
10:35 AM 33.8 °F 24.8 °F 6.8 °F 32% 29.84 in 10.0 mi SSW 12.7 mph 21.9 mph N/A   Clear
10:55 AM 33.8 °F 24.8 °F 6.8 °F 32% 29.81 in 10.0 mi SSW 12.7 mph 20.7 mph N/A   Clear
11:15 AM 33.8 °F 25.3 °F 6.8 °F 32% 29.79 in 10.0 mi SSW 11.5 mph 23.0 mph N/A   Clear
11:35 AM 33.8 °F 25.8 °F 6.8 °F 32% 29.77 in 10.0 mi SSW 10.4 mph 23.0 mph N/A   Clear
11:55 AM 35.6 °F 25.2 °F 6.8 °F 30% 29.75 in 10.0 mi SSW 18.4 mph 25.3 mph N/A   Clear
12:15 PM 35.6 °F 26.2 °F 6.8 °F 30% 29.72 in 10.0 mi SSW 15.0 mph 27.6 mph N/A   Clear
12:35 PM 35.6 °F 25.9 °F 5.0 °F 28% 29.70 in 10.0 mi SSW 16.1 mph 26.5 mph N/A   Scattered Clouds
12:55 PM 35.6 °F 25.2 °F 6.8 °F 30% 29.67 in 10.0 mi SSW 18.4 mph 23.0 mph N/A   Scattered Clouds
1:15 PM 35.6 °F 24.0 °F 6.8 °F 30% 29.65 in 10.0 mi SSW 23.0 mph 27.6 mph N/A   Clear
1:35 PM 35.6 °F 28.6 °F 8.6 °F 33% 29.63 in 10.0 mi SSW 9.2 mph 23.0 mph N/A   Clear
1:55 PM 37.4 °F 28.9 °F 8.6 °F 30% 29.62 in 10.0 mi SSW 13.8 mph 23.0 mph N/A   Clear
2:15 PM 37.4 °F 26.9 °F 8.6 °F 30% 29.60 in 10.0 mi SW 20.7 mph 27.6 mph N/A   Clear
2:35 PM 37.4 °F 27.5 °F 8.6 °F 30% 29.60 in 10.0 mi SW 18.4 mph 23.0 mph N/A   Scattered Clouds
2:55 PM 37.4 °F 26.6 °F 10.4 °F 33% 29.59 in 10.0 mi SW 21.9 mph 31.1 mph N/A   Mostly Cloudy
3:15 PM 37.4 °F 29.3 °F 12.2 °F 36% 29.57 in 10.0 mi SW 12.7 mph 27.6 mph N/A   Scattered Clouds
3:35 PM 37.4 °F 27.8 °F 10.4 °F 33% 29.57 in 10.0 mi SW 17.3 mph 27.6 mph N/A   Scattered Clouds
3:55 PM 37.4 °F 28.9 °F 10.4 °F 33% 29.56 in 10.0 mi SW 13.8 mph 26.5 mph N/A   Scattered Clouds
4:15 PM 39.2 °F 30.5 °F 10.4 °F 31% 29.56 in 10.0 mi SW 16.1 mph 23.0 mph N/A   Clear
4:35 PM 37.4 °F 28.2 °F 10.4 °F 33% 29.56 in 10.0 mi SW 16.1 mph 29.9 mph N/A   Scattered Clouds
4:55 PM 37.4 °F 28.2 °F 12.2 °F 36% 29.57 in 10.0 mi WSW 16.1 mph 23.0 mph N/A   Clear
5:15 PM 37.4 °F 27.5 °F 12.2 °F 36% 29.57 in 10.0 mi WSW 18.4 mph 29.9 mph N/A   Clear
5:35 PM 37.4 °F 27.5 °F 12.2 °F 36% 29.57 in 10.0 mi SW 18.4 mph 24.2 mph N/A   Clear
5:55 PM 37.4 °F 28.9 °F 12.2 °F 36% 29.57 in 10.0 mi WSW 13.8 mph 20.7 mph N/A   Scattered Clouds
6:15 PM 37.4 °F 27.5 °F 12.2 °F 36% 29.57 in 10.0 mi WSW 18.4 mph 24.2 mph N/A   Scattered Clouds
6:35 PM 37.4 °F 28.9 °F 12.2 °F 36% 29.57 in 10.0 mi WSW 13.8 mph 21.9 mph N/A   Scattered Clouds
6:55 PM 37.4 °F 29.8 °F 14.0 °F 38% 29.58 in 10.0 mi WSW 11.5 mph 18.4 mph N/A   Mostly Cloudy
7:15 PM 37.4 °F 29.3 °F 14.0 °F 38% 29.59 in 10.0 mi WSW 12.7 mph 18.4 mph N/A   Overcast
7:35 PM 37.4 °F 28.2 °F 14.0 °F 38% 29.59 in 10.0 mi WSW 16.1 mph 25.3 mph N/A   Mostly Cloudy
7:55 PM 37.4 °F 27.8 °F 14.0 °F 38% 29.60 in 10.0 mi WSW 17.3 mph 24.2 mph N/A   Scattered Clouds
8:15 PM 39.2 °F 30.5 °F 12.2 °F 33% 29.60 in 10.0 mi WSW 16.1 mph 27.6 mph N/A   Clear
8:35 PM 39.2 °F 30.5 °F 14.0 °F 36% 29.61 in 10.0 mi WSW 16.1 mph 25.3 mph N/A   Clear
8:55 PM 39.2 °F 30.5 °F 15.8 °F 39% 29.61 in 10.0 mi WSW 16.1 mph 20.7 mph N/A   Clear
9:15 PM 39.2 °F 30.8 °F 17.6 °F 42% 29.61 in 10.0 mi WSW 15.0 mph 25.3 mph N/A   Clear
9:35 PM 39.2 °F 29.6 °F 17.6 °F 42% 29.62 in 10.0 mi WSW 19.6 mph 26.5 mph N/A   Clear
9:55 PM 39.2 °F 29.6 °F 19.4 °F 45% 29.63 in 10.0 mi West 19.6 mph 26.5 mph N/A   Clear
10:15 PM 39.2 °F 30.8 °F 17.6 °F 42% 29.64 in 10.0 mi WSW 15.0 mph 24.2 mph N/A   Clear
10:35 PM 39.2 °F 30.8 °F 17.6 °F 42% 29.65 in 10.0 mi WSW 15.0 mph 21.9 mph N/A   Clear
10:55 PM 39.2 °F 31.2 °F 15.8 °F 39% 29.65 in 10.0 mi WSW 13.8 mph 23.0 mph N/A   Clear
11:15 PM 39.2 °F 31.2 °F 15.8 °F 39% 29.65 in 10.0 mi WSW 13.8 mph 18.4 mph N/A   Clear
11:36 PM 37.4 °F 29.8 °F 17.6 °F 45% 29.66 in 10.0 mi SW 11.5 mph 16.1 mph N/A   Clear
11:56 PM 37.4 °F 29.8 °F 17.6 °F 45% 29.67 in 10.0 mi WSW 11.5 mph - N/A   Scattered Clouds